Rbgn^[z[y[W
メイン
   新天体発見情報
     Comet P/2005 W3 = 2021 O2 (Kowalski)
投稿するにはまず登録を

フラット表示 前のトピック | 次のトピック
投稿者 スレッド
佐藤裕久
投稿日時: 2021-7-30 22:46
モデレータ
登録日: 2005-6-12
居住地: 日本
投稿: 2676
オンライン
Comet P/2005 W3 = 2021 O2 (Kowalski)

R. Weryk (西オンタリオ大学,物理および天文学科)は、2021年7月20日、ハワイ、Haleakalaに
あるPan-STARRS1 1.8-m Ritchey-Chretien反射望遠鏡で得た画像から偶然にP/2005 W3 (IAUC 
8634, 8641を参照)を検出を通報した(小惑星センターで確認した)。1".3のシーイングで得た
45秒4枚w-バンドサーベイ画像は、大変集光した1".7(半値全幅:FWHM)のコマが見え、p.a. 250-
270°にまたぐ8"の広い尾がある。
Werykは、2020年9月6日と12月6日から新しく見つかったPan-STARRS1の観測と2020年9月14日、
10月6日および11月8日のPan-STARRS2の観測とともに小惑星センターの"分離したトラック
レットファイル" (ITF)の中にあった2020年8月19日のPan-STARRS1の画像が、彼が後で彗星を
確認したと付け加えた。2020年は、この彗星がかすかでどのような彗星活動も存在したか
どうか確認することはできなかった。

検出位置は次のとおり、

     2021 UT             R.A. (2000) Decl.       Mag.
     July 20.59892    3 26 07.23   +17 18 18.7   20.4
          20.60293    3 26 07.59   +17 18 18.9   20.2
          20.60692    3 26 07.92   +17 18 19.3   20.4
          20.61091    3 26 08.27   +17 18 19.7   20.3

検出前の観測は次のとおり、

     2020 UT             R.A. (2000) Decl.       Mag.
     Aug. 19.47367   22 05 59.28   + 7 49 40.5   22.8
          19.48272   22 05 58.97   + 7 49 38.5   23.0
          19.49174   22 05 58.68   + 7 49 36.6   22.6
          19.50078   22 05 58.39   + 7 49 34.5   22.8
     Sept. 6.26456   21 56 30.26   + 6 27 43.9   23.6
           6.27634   21 56 29.87   + 6 27 40.3   22.8
          14.30064   21 52 38.14   + 5 41 21.7   21.8
          14.31154   21 52 37.86   + 5 41 17.4   22.3
          14.32253   21 52 37.59   + 5 41 13.1   22.9
     Oct.  6.25323   21 45 44.46   + 3 24 57.6   22.6
           6.26556   21 45 44.35   + 3 24 53.6   22.2
     Nov.  8.24405   21 49 58.35   + 0 41 39.7   22.9
           8.25629   21 49 58.64   + 0 41 37.1   21.7
     Dec.  6.23310   22 07 31.09   - 0 10 41.4   21.9
           6.25642   22 07 32.21   - 0 10 41.9   22.6

NK 1348およびICQ's 2020 & 2021 Comet Handbookの中野主一氏の予報に対し、Delta(T)は、
-0.97 dayであった。
MPC 56954の予報に対するDelta(T)は、-0.52 dayであった。
彗星年表2020と2021の佐藤裕久の参考軌道要素に対する修正値は、Delta(T) = -0.97 dayで
あった。

MPCの連結軌道要素と位置推算表は次のとおり、

Orbital elements:
    P/2005 W3 (Kowalski)                                                        
Epoch 2005 Aug. 18.0 TT = JDT 2453600.5                                         
T 2005 Aug. 23.05438 TT                                 Rudenko                 
q   3.0084176            (2000.0)            P               Q                  
n   0.06076657     Peri.  199.23574     +0.63934772     -0.75392306             
a   6.4075635      Node   211.56599     +0.73788108     +0.65684785             
e   0.5304896      Incl.   16.77811     +0.21625446     -0.01228467             
P  16.2                                                                         
From 138 observations 2005 Sept. 30-2021 July 20, mean residual 0".8.           
                                                                                
    P/2005 W3 (Kowalski)                                                        
Epoch 2021 Sept. 23.0 TT = JDT 2459480.5                                        
T 2021 Sept. 20.40259 TT                                Rudenko                 
q   2.8900654            (2000.0)            P               Q                  
n   0.06190466     Peri.  200.73001     +0.63901860     -0.75602162             
a   6.3287874      Node   210.08842     +0.73952570     +0.65453185             
e   0.5433461      Incl.   16.42134     +0.21155843     -0.00440183             
P  15.9                                                                         
From 138 observations 2005 Sept. 30-2021 July 20, mean residual 0".8.           
                                                                                
    P/2005 W3 (Kowalski)                                                        
Epoch 2037 Sept. 19.0 TT = JDT 2465320.5                                        
T 2037 Sept. 11.47590 TT                                Rudenko                 
q   2.8952517            (2000.0)            P               Q                  
n   0.06160042     Peri.  200.88196     +0.63653065     -0.75813955             
a   6.3496082      Node   210.12238     +0.74157463     +0.65207582             
e   0.5440267      Incl.   16.39006     +0.21188630     -0.00464316             
P  16.0                                                                         
From 138 observations 2005 Sept. 30-2021 July 20, mean residual 0".8.           
                                                                                
    P/2005 W3 (Kowalski)                                                        
Epoch 2021 July 5.0 TT = JDT 2459400.5                                          
T 2021 Sept. 20.38046 TT                                Rudenko                 
q   2.8900822            (2000.0)            P               Q                  
n   0.06191148     Peri.  200.72423     +0.63909269     -0.75595863             
a   6.3283222      Node   210.08859     +0.73946157     +0.65460472             
e   0.5433099      Incl.   16.42148     +0.21155878     -0.00438365             
P  15.9                                                                         
From 138 observations 2005 Sept. 30-2021 July 20, mean residual 0".8.           
                                                                                
Ephemeris:
Date    TT    R. A. (2000) Decl.     Delta      r    Elong.  Phase   m1
2021 06 30    02 55 20.5 +16 35 24   3.4715  2.9543    51.9    15.7  19.4
...
2021 07 15    03 17 57.5 +17 10 33   3.2912  2.9333    60.8    17.6  19.3
...
2021 07 23    03 29 33.5 +17 20 43   3.1905  2.9237    65.7    18.5  19.2
...
2021 07 29    03 37 59.4 +17 24 12   3.1134  2.9173    69.5    19.0  19.1
2021 07 30    03 39 22.1 +17 24 25   3.1004  2.9163    70.1    19.1  19.1
2021 07 31    03 40 44.4 +17 24 32   3.0874  2.9153    70.8    19.2  19.1
...
2021 08 06    03 48 47.7 +17 23 04   3.0089  2.9098    74.7    19.6  19.0
...
2021 08 14    03 59 00.2 +17 15 08   2.9032  2.9035    80.0    20.1  18.9
...
2021 08 29    04 16 08.7 +16 41 22   2.7048  2.8949    90.5    20.4  18.8

(MPEC 2021-O66、CBET 5006、oaa-comet 2075)

フラット表示 前のトピック | 次のトピック

題名 投稿者 日時
 » Comet P/2005 W3 = 2021 O2 (Kowalski) 佐藤裕久 2021-7-30 22:46

投稿するにはまず登録を
 
© 1999 Tsutomu Seki.